STARLINK-5679, 55467

Orbit data source: Space-Track

STARLINK-5679, 55467 is a payload satellite owned by SpaceX/Seattle (US) in LEO that was launched on Thu, 02 Feb 2023 UTC via an FALCON 9 launch vehicle from the Air Force Eastern Test Range (AFETR). Payload-class satellites include a variety of spacecraft equipped with specific instruments for various scientific and technological missions. These include communications satellites like Starlink; space stations such as the ISS; scientific satellites like the Hubble; Earth observation satellites from companies like Planet Labs, Umbra, and HawkEye 360; GPS; miniature CubeSats for education and research; and military/defense satellites.

Loading next visibility...
Identifier
55467, 2023-015U
Orbit
LEO
Country
Flag of USUS
Related business
Manufacturer
SpaceX/Seattle
Mission
Operational Commercial Communications
Bus & Motor
STARLINK, Unknown motor
Mass
305 kg wet, ~290 kg dry
Launch date (UTC)
2023-02-02 (3 years ago)
Launch vehicle
FALCON 9
Launch site
Air Force Eastern Test Range (AFETR)
Object type
Payload
Rocket body
Debris
Shape & HBR
Box + 1 Pan, 10.1 m
Radar Cross Section
13.562 m², Large (>1 m²)

Expand to show TLE details & history
Last TLE update: 15 hours ago

TLE from 15 hours ago
0 STARLINK-5679
1 55467U 23015U   25302.32630117  .00000442  00000-0  47806-4 0  9992
2 55467  43.0033 319.7733 0001203 269.7348  90.3356 15.02538456150999
Epoch: 2025-10-29T07:49Z
TLE epoch observation values (Epoch: 2025-10-29T07:49:52.421Z)
Latitude
-0.00004°
Longitude
164.4038°
Altitude
558.855 km
Speed
7.584 km/s
True Right ascension
21h 19m 05s
True Declination
0° 00' 00"
Sunlit
Object was in daylight at epoch
Visualization orbit readout
Latitude
Unknown
Longitude
Unknown
Altitude
Unknown
Speed
Unknown
Apparent Right ascension
Unknown
Apparent Declination
Unknown
Sunlit
N/A
Visualization observer readout
Local Sidereal Time
18:43:29
Azimuth
Unknown
Elevation
Unknown
Doppler factor
Unknown
Orbital elements
Apogee altitude
561.83 km
Perigee altitude
560.161 km
Semi-major axis
6,939.132 km
Eccentricity
0.00012
Inclination
43.0033°
RAAN
319.7733°
Arg. of periapsis
269.7348°
True anomaly
90.34939°
Mean anomaly
90.3356°
Eccentric anomaly
90.34249°
Mean motion
3.75479 °/min
Orbital period
95.88 mins
BSTAR
0.000047806
Loading maneuver chart data...
Computing Atmospheric mass density...
Loading historical data...
Loading historical data...
Loading historical data...
Loading historical data...
Loading historical data...
Loading historical data...
Loading historical data...

Documentation

Showing up to 5 results
|